Springfield, MO

1:45 AM CDT on July 23, 2017 (GMT -0500)
Springfield-Branson Regional

Weather History for KSGF - August, 2013

Change the Weather History Date:

Friday, August 9, 2013

  Actual Average Record
Temperature  
Mean Temperature 76 °F 79 °F  
Max Temperature 81 °F 90 °F 104 °F (1936)
Min Temperature 70 °F 68 °F 54 °F (1975)
Degree Days  
Heating Degree Days 0 0  
Month to date heating degree days 0 0  
Since 1 June heating degree days 14 9  
Since 1 July heating degree days 0 0  
Cooling Degree Days 11 14  
Month to date cooling degree days 109 126  
Year to date cooling degree days 893 914  
Since 1 June cooling degree days 766 799  
Growing Degree Days 26 (Base 50)    
Moisture  
Dew Point 69 °F    
Average Humidity 82    
Maximum Humidity 93    
Minimum Humidity 71    
Precipitation  
Precipitation 0.01 in 0.11 in 2.02 in (1916)
Month to date precipitation 5.07 0.91  
Year to date precipitation 37.38 27.47  
Snow  
Snow 0.00 in - - ()
Month to date snowfall 0.0  
Since 1 June snowfall 0.0  
Since 1 July snowfall 0.0  
Snow Depth 0.00 in    
Sea Level Pressure  
Sea Level Pressure 30.00 in    
Wind  
Wind Speed 7 mph (NNE)    
Max Wind Speed 15 mph    
Max Gust Speed 18 mph    
Visibility 10 miles    
Events Rain    
T = Trace of Precipitation, MM = Missing Value Source: NWS Daily Summary

Daily Weather History Graph

Daily Weather History Graph

Search for Another Location

Airport or City:

Trip Planner

Search our weather history database for the weather conditions in past years. The results will help you decide how hot, cold, wet, or windy it might be!

Date:

Astronomy

Aug. 09, 2013 Rise Set
Actual Time 6:25 AM CDT 8:12 PM CDT
Civil Twilight 5:56 AM CDT 8:40 PM CDT
Nautical Twilight 5:22 AM CDT 9:14 PM CDT
Astronomical Twilight 4:46 AM CDT 9:50 PM CDT
Moon 9:06 AM CDT (8/9) 9:28 PM CDT (8/9)
Length of Visible Light 14h 43m
Length of Day
13h 47m
Waxing Crescent, 8% of the Moon is Illuminated
Aug 9
Waxing Crescent
Aug 14
First Quarter
Aug 20
Full
Aug 28
Last Quarter
Sep 5
New

Hourly Weather History & Observations

Time (CDT) Temp. Dew Point Humidity Pressure Visibility Wind Dir Wind Speed Gust Speed Precip Events Conditions
12:02 AM 73.0 °F 69.1 °F 87% 29.99 in 10.0 mi ENE 5.8 mph - N/A   Partly Cloudy
12:14 AM 73.0 °F 69.1 °F 87% 29.99 in 10.0 mi NE 5.8 mph - N/A   Scattered Clouds
12:23 AM 73.0 °F 70.0 °F 90% 29.99 in 10.0 mi ENE 5.8 mph - N/A   Mostly Cloudy
12:52 AM 73.0 °F 70.0 °F 90% 29.94 in 10.0 mi East 6.9 mph - N/A   Scattered Clouds
1:52 AM 73.0 °F 70.0 °F 90% 29.94 in 10.0 mi NNE 4.6 mph - N/A   Mostly Cloudy
1:57 AM 73.0 °F 70.0 °F 90% 29.98 in 10.0 mi NNE 4.6 mph - N/A   Mostly Cloudy
2:35 AM 73.0 °F 70.0 °F 90% 29.96 in 10.0 mi ENE 5.8 mph - N/A   Overcast
2:52 AM 73.0 °F 70.0 °F 90% 29.93 in 10.0 mi NE 5.8 mph - N/A   Overcast
3:42 AM 73.0 °F 70.0 °F 90% 29.98 in 10.0 mi NNE 5.8 mph - N/A   Scattered Clouds
3:52 AM 73.0 °F 70.0 °F 90% 29.94 in 9.0 mi ENE 5.8 mph - N/A   Mostly Cloudy
4:52 AM 72.0 °F 70.0 °F 93% 29.94 in 9.0 mi East 3.5 mph - N/A   Mostly Cloudy
5:09 AM 73.0 °F 70.0 °F 90% 29.98 in 9.0 mi NE 4.6 mph - N/A   Overcast
5:35 AM 73.0 °F 70.0 °F 90% 29.98 in 9.0 mi NE 5.8 mph - N/A   Overcast
5:52 AM 72.0 °F 70.0 °F 93% 29.94 in 9.0 mi NE 4.6 mph - 0.00 in Rain Light Rain
6:32 AM 73.0 °F 71.1 °F 93% 30.00 in 9.0 mi Calm Calm - 0.00 in   Overcast
6:52 AM 72.0 °F 71.1 °F 97% 29.97 in 8.0 mi SSE 3.5 mph - 0.00 in   Overcast
6:55 AM 72.0 °F 71.1 °F 97% 30.01 in 7.0 mi SSE 4.6 mph - 0.00 in Rain Light Rain
7:16 AM 73.0 °F 71.1 °F 93% 30.01 in 9.0 mi South 6.9 mph - 0.00 in   Overcast
7:39 AM 73.0 °F 71.1 °F 93% 30.00 in 9.0 mi SW 3.5 mph - 0.00 in   Overcast
7:52 AM 73.0 °F 71.1 °F 93% 29.97 in 10.0 mi SW 6.9 mph - 0.00 in   Overcast
8:52 AM 73.9 °F 71.1 °F 91% 29.96 in 10.0 mi SW 3.5 mph - 0.01 in Rain Light Rain
9:52 AM 75.0 °F 71.1 °F 87% 29.98 in 10.0 mi NW 5.8 mph - 0.00 in   Partly Cloudy
10:25 AM 77.0 °F 70.0 °F 79% 30.02 in 10.0 mi NNW 9.2 mph - 0.00 in   Mostly Cloudy
10:52 AM 77.0 °F 69.1 °F 76% 29.99 in 10.0 mi NNW 9.2 mph - 0.00 in   Mostly Cloudy
11:28 AM 79.0 °F 70.0 °F 74% 30.02 in 10.0 mi North 10.4 mph - N/A   Mostly Cloudy
11:38 AM 79.0 °F 68.0 °F 69% 30.02 in 10.0 mi North 8.1 mph - N/A   Mostly Cloudy
11:45 AM 79.0 °F 69.1 °F 72% 30.02 in 10.0 mi NNE 9.2 mph - N/A   Scattered Clouds
11:52 AM 79.0 °F 69.1 °F 72% 29.99 in 10.0 mi NNE 8.1 mph - N/A   Scattered Clouds
12:52 PM 79.0 °F 69.1 °F 72% 30.00 in 10.0 mi North 12.7 mph - N/A   Mostly Cloudy
1:52 PM 79.0 °F 68.0 °F 69% 30.00 in 10.0 mi NNE 9.2 mph 17.3 mph N/A   Mostly Cloudy
2:52 PM 79.0 °F 69.1 °F 72% 29.99 in 10.0 mi NNE 9.2 mph - 0.00 in   Mostly Cloudy
3:52 PM 77.0 °F 69.1 °F 76% 29.99 in 10.0 mi NNE 8.1 mph - N/A   Overcast
4:52 PM 78.1 °F 70.0 °F 76% 29.98 in 10.0 mi NNE 9.2 mph - N/A   Mostly Cloudy
5:45 PM 77.0 °F 70.0 °F 79% 30.02 in 10.0 mi NNE 11.5 mph - N/A   Mostly Cloudy
5:52 PM 75.9 °F 70.0 °F 82% 29.99 in 10.0 mi North 10.4 mph - N/A   Overcast
6:09 PM 75.9 °F 70.0 °F 82% 30.02 in 10.0 mi NNE 10.4 mph - N/A   Mostly Cloudy
6:21 PM 75.9 °F 69.1 °F 79% 30.02 in 10.0 mi NNE 12.7 mph - N/A   Overcast
6:52 PM 73.9 °F 69.1 °F 85% 30.00 in 10.0 mi North 12.7 mph - N/A   Overcast
7:09 PM 73.0 °F 68.0 °F 84% 30.03 in 10.0 mi NNE 9.2 mph - N/A   Mostly Cloudy
7:23 PM 73.0 °F 68.0 °F 84% 30.03 in 10.0 mi North 9.2 mph - N/A   Mostly Cloudy
7:52 PM 73.0 °F 68.0 °F 84% 30.00 in 10.0 mi NNE 9.2 mph - N/A   Mostly Cloudy
8:52 PM 72.0 °F 66.9 °F 84% 30.01 in 10.0 mi NNE 6.9 mph - N/A   Overcast
9:18 PM 72.0 °F 66.0 °F 81% 30.05 in 10.0 mi NE 10.4 mph - N/A   Overcast
9:31 PM 72.0 °F 66.0 °F 81% 30.06 in 10.0 mi NE 9.2 mph - N/A   Overcast
9:52 PM 71.1 °F 66.9 °F 87% 30.03 in 10.0 mi NE 6.9 mph - N/A   Overcast
10:12 PM 71.1 °F 66.0 °F 84% 30.06 in 10.0 mi NE 8.1 mph - N/A   Overcast
10:52 PM 71.1 °F 66.0 °F 84% 30.04 in 10.0 mi NE 5.8 mph - N/A   Overcast
11:05 PM 71.1 °F 66.0 °F 84% 30.08 in 10.0 mi NE 8.1 mph - N/A   Overcast
11:42 PM 70.0 °F 66.0 °F 87% 30.08 in 10.0 mi NNE 6.9 mph - N/A   Overcast
11:52 PM 70.0 °F 66.0 °F 87% 30.05 in 10.0 mi NNE 6.9 mph - N/A   Overcast